Tracking 35331 objects as of 14-Sep-2026
HD Live streaming from Space Station
objects crossing your sky now

STARLINK-34885

Track STARLINK-34885 now!
10-day predictions
STARLINK-34885 is classified as:


NORAD ID: 65328
Int'l Code: 2025-189F
Launch date: August 27, 2025
Source: United States (US)
Launch site: AIR FORCE EASTERN TEST RANGE (AFETR)
Your satellite tracking list
Your tracking list is empty




NASA's NSSDC Master Catalog

Two Line Element Set (TLE):
1 65328U 25189F   26256.83786400  .00017391  00000-0  57036-3 0  9991
2 65328  53.1613  51.3630 0001408  54.6439 305.4694 15.31728958 59876
Source of the keplerian elements: AFSPC